KHB198 USTJ-UNNT

Flight info

Callsign KHB198
Flight time N/A
Altitude 35000
Route GAFEN2D GAFEN R814 SZ W1 GOLIM GOLIM1K
Aircraft T154/M-SDGRWY/S

Departure

Time 2026-04-27 11:08
Airport Tobolsk Remezov Airport (USTJ)

Arrival

Time N/A
Airport Novosibirsk Tolmachevo Airport (UNNT)
Time Latitude Longitude Altitude Speed Heading
2026-04-27 10:14 58.06090 68.32887 160 ft 0 kts 360°
2026-04-27 10:52 58.06089 68.32887 160 ft 1 kts 360°
2026-04-27 10:52 58.06075 68.32887 160 ft 2 kts 359°
2026-04-27 10:53 58.06060 68.32887 160 ft 2 kts 359°
2026-04-27 10:53 58.06032 68.32898 160 ft 2 kts 312°
2026-04-27 10:53 58.06027 68.32923 160 ft 2 kts 274°
2026-04-27 10:54 58.06028 68.32950 160 ft 2 kts 266°
2026-04-27 10:54 58.06028 68.32972 160 ft 0 kts 271°
2026-04-27 10:54 58.06028 68.32973 160 ft 0 kts 271°
2026-04-27 10:54 58.06028 68.32972 160 ft 0 kts 271°
2026-04-27 11:01 58.06028 68.32951 160 ft 2 kts 266°
2026-04-27 11:01 58.06019 68.32906 160 ft 4 kts 237°
2026-04-27 11:01 58.05987 68.32862 159 ft 6 kts 194°
2026-04-27 11:01 58.05933 68.32857 159 ft 8 kts 180°
2026-04-27 11:02 58.05870 68.32858 159 ft 9 kts 171°
2026-04-27 11:02 58.05842 68.32961 158 ft 11 kts 91°
2026-04-27 11:02 58.05842 68.33118 158 ft 12 kts 90°
2026-04-27 11:02 58.05842 68.33278 161 ft 11 kts 89°
2026-04-27 11:03 58.05842 68.33428 163 ft 11 kts 89°
2026-04-27 11:03 58.05843 68.33569 165 ft 10 kts 89°
2026-04-27 11:03 58.05843 68.33736 168 ft 14 kts 90°
2026-04-27 11:03 58.05842 68.33954 170 ft 17 kts 90°
2026-04-27 11:04 58.05841 68.34180 173 ft 17 kts 90°
2026-04-27 11:04 58.05841 68.34405 176 ft 16 kts 90°
2026-04-27 11:04 58.05842 68.34624 178 ft 16 kts 89°
2026-04-27 11:04 58.05843 68.34845 180 ft 16 kts 89°
2026-04-27 11:05 58.05844 68.35069 181 ft 17 kts 89°
2026-04-27 11:05 58.05844 68.35312 181 ft 19 kts 90°
2026-04-27 11:05 58.05843 68.35579 180 ft 21 kts 90°
2026-04-27 11:05 58.05843 68.35869 179 ft 23 kts 90°
2026-04-27 11:06 58.05843 68.36175 180 ft 23 kts 89°
2026-04-27 11:06 58.05843 68.36475 185 ft 19 kts 90°
2026-04-27 11:06 58.05850 68.36671 186 ft 11 kts 72°
2026-04-27 11:06 58.05880 68.36813 182 ft 10 kts 96°
2026-04-27 11:07 58.05847 68.36818 181 ft 5 kts 253°
2026-04-27 11:07 58.05845 68.36790 183 ft 0 kts 268°
2026-04-27 11:08 58.05843 68.36661 186 ft 39 kts 269°
2026-04-27 11:08 58.05841 68.35607 180 ft 118 kts 269°
2026-04-27 11:08 58.05845 68.33659 255 ft 171 kts 270°
2026-04-27 11:08 58.05837 68.31348 790 ft 184 kts 269°
2026-04-27 11:09 58.05569 68.28962 1396 ft 195 kts 242°
2026-04-27 11:09 58.04534 68.27251 1944 ft 212 kts 202°
2026-04-27 11:09 58.02973 68.27072 2397 ft 248 kts 167°
2026-04-27 11:09 58.01481 68.28715 3421 ft 259 kts 134°
2026-04-27 11:10 58.00624 68.31649 4470 ft 268 kts 102°
2026-04-27 11:10 58.00617 68.35100 5602 ft 269 kts 80°
2026-04-27 11:10 58.00810 68.38589 6646 ft 276 kts 90°
2026-04-27 11:10 58.00619 68.42144 7714 ft 279 kts 101°
2026-04-27 11:11 58.00176 68.45704 8741 ft 284 kts 104°
2026-04-27 11:11 57.99657 68.49316 9713 ft 290 kts 104°
2026-04-27 11:11 57.99113 68.52962 10656 ft 296 kts 104°
2026-04-27 11:11 57.98537 68.56742 11364 ft 311 kts 104°
2026-04-27 11:12 57.97910 68.60817 11822 ft 335 kts 104°
2026-04-27 11:12 57.97247 68.65091 12219 ft 357 kts 105°
2026-04-27 11:12 57.96523 68.69738 12746 ft 374 kts 105°
2026-04-27 11:12 57.95799 68.74369 13774 ft 374 kts 105°
2026-04-27 11:13 57.95058 68.79098 14612 ft 381 kts 104°
2026-04-27 11:13 57.94311 68.83841 15479 ft 386 kts 104°
2026-04-27 11:13 57.93538 68.88747 16318 ft 392 kts 104°
2026-04-27 11:13 57.92764 68.93637 17142 ft 398 kts 104°
2026-04-27 11:14 57.91972 68.98625 17976 ft 404 kts 104°
2026-04-27 11:14 57.91164 69.03690 18765 ft 410 kts 104°
2026-04-27 11:14 57.90058 69.08674 19559 ft 419 kts 117°
2026-04-27 11:14 57.88577 69.13356 20325 ft 426 kts 120°
2026-04-27 11:15 57.87026 69.18158 21100 ft 432 kts 118°
2026-04-27 11:15 57.85533 69.22955 21885 ft 436 kts 117°
2026-04-27 11:15 57.84006 69.27914 22568 ft 444 kts 118°
2026-04-27 11:15 57.82455 69.32936 23384 ft 448 kts 117°
2026-04-27 11:16 57.80899 69.37971 24050 ft 456 kts 117°
2026-04-27 11:16 57.79292 69.43165 24795 ft 461 kts 117°
2026-04-27 11:16 57.77684 69.48350 25520 ft 466 kts 117°
2026-04-27 11:16 57.76045 69.53619 26164 ft 473 kts 117°
2026-04-27 11:17 57.74400 69.58903 26807 ft 479 kts 117°
2026-04-27 11:17 57.72701 69.64341 27431 ft 485 kts 118°
2026-04-27 11:17 57.70999 69.69787 27996 ft 492 kts 118°
2026-04-27 11:17 57.69276 69.75297 28617 ft 497 kts 118°
2026-04-27 11:18 57.67522 69.80884 29204 ft 503 kts 119°
2026-04-27 11:18 57.65738 69.86547 29748 ft 509 kts 119°
2026-04-27 11:18 57.63959 69.92178 30276 ft 515 kts 119°
2026-04-27 11:18 57.62138 69.97929 30844 ft 520 kts 119°
2026-04-27 11:19 57.60274 70.03799 31310 ft 526 kts 119°
2026-04-27 11:19 57.58419 70.09628 31777 ft 527 kts 119°
2026-04-27 11:19 57.56564 70.15437 32251 ft 527 kts 120°
2026-04-27 11:19 57.54684 70.21313 32659 ft 528 kts 120°
2026-04-27 11:20 57.52814 70.27145 32977 ft 531 kts 120°
2026-04-27 11:20 57.50946 70.32962 33319 ft 532 kts 121°
2026-04-27 11:20 57.49034 70.38891 33663 ft 532 kts 121°
2026-04-27 11:20 57.47157 70.44698 34004 ft 532 kts 121°
2026-04-27 11:21 57.45255 70.50575 34275 ft 535 kts 121°
2026-04-27 11:21 57.43332 70.56495 34647 ft 534 kts 121°
2026-04-27 11:21 57.41430 70.62342 35018 ft 532 kts 121°
2026-04-27 11:21 57.39518 70.68201 35095 ft 533 kts 122°
2026-04-27 11:22 57.37625 70.74004 35250 ft 532 kts 122°
2026-04-27 11:22 57.35704 70.79877 35230 ft 534 kts 122°
2026-04-27 11:22 57.31813 70.91457 35201 ft 531 kts 123°
2026-04-27 11:23 57.27895 71.02906 35181 ft 530 kts 123°
2026-04-27 11:23 57.23988 71.14314 35176 ft 528 kts 123°
2026-04-27 11:24 57.20081 71.25670 35171 ft 527 kts 123°
2026-04-27 11:24 57.16149 71.37045 35159 ft 525 kts 123°
2026-04-27 11:25 57.12265 71.48225 35168 ft 524 kts 123°
2026-04-27 11:25 57.08317 71.59538 35165 ft 523 kts 123°
2026-04-27 11:26 57.04411 71.70692 35139 ft 523 kts 124°
2026-04-27 11:26 57.00504 71.81812 35148 ft 522 kts 124°
2026-04-27 11:27 56.96558 71.92969 35162 ft 521 kts 124°
2026-04-27 11:27 56.92624 72.04035 35176 ft 521 kts 124°
2026-04-27 11:28 56.88695 72.15025 35154 ft 520 kts 125°
2026-04-27 11:28 56.84708 72.26049 35162 ft 520 kts 125°
2026-04-27 11:29 56.80751 72.37009 35173 ft 520 kts 125°
2026-04-27 11:29 56.76795 72.47936 35165 ft 520 kts 125°
2026-04-27 11:30 56.72822 72.58859 35168 ft 521 kts 124°
2026-04-27 11:30 56.68816 72.69836 35139 ft 522 kts 126°
2026-04-27 11:31 56.64814 72.80771 35131 ft 522 kts 126°
2026-04-27 11:31 56.62812 72.86213 35232 ft 519 kts 126°
2026-04-27 11:31 56.60821 72.91609 35205 ft 520 kts 126°
2026-04-27 11:32 56.56800 73.02470 35213 ft 520 kts 126°
2026-04-27 11:32 56.52789 73.13254 35203 ft 520 kts 126°
2026-04-27 11:33 56.48742 73.24087 35212 ft 520 kts 126°
2026-04-27 11:33 56.44708 73.34837 35210 ft 520 kts 126°
2026-04-27 11:34 56.40662 73.45568 35201 ft 520 kts 126°
2026-04-27 11:34 56.36595 73.56310 35208 ft 520 kts 126°
2026-04-27 11:35 56.32508 73.67061 35184 ft 521 kts 127°
2026-04-27 11:35 56.28436 73.77756 35199 ft 520 kts 127°
2026-04-27 11:36 56.24357 73.88397 35187 ft 520 kts 127°
2026-04-27 11:36 56.22459 73.93971 35184 ft 522 kts 115°
2026-04-27 11:36 56.21256 74.00055 35283 ft 520 kts 107°
2026-04-27 11:37 56.19140 74.12425 35218 ft 522 kts 108°
2026-04-27 11:37 56.16926 74.24779 35217 ft 522 kts 109°
2026-04-27 11:38 56.14691 74.37163 35214 ft 522 kts 109°
2026-04-27 11:38 56.12453 74.49479 35211 ft 523 kts 109°
2026-04-27 11:39 56.10208 74.61753 35205 ft 523 kts 109°
2026-04-27 11:39 56.07946 74.74058 35167 ft 523 kts 110°
2026-04-27 11:40 56.05661 74.86408 35191 ft 523 kts 110°
2026-04-27 11:40 56.03383 74.98618 35190 ft 523 kts 110°
2026-04-27 11:41 56.01071 75.10928 35199 ft 523 kts 110°
2026-04-27 11:41 55.98756 75.23177 35197 ft 523 kts 110°
2026-04-27 11:42 55.96437 75.35368 35199 ft 523 kts 110°
2026-04-27 11:42 55.94094 75.47603 35195 ft 523 kts 110°
2026-04-27 11:43 55.91735 75.59850 35205 ft 523 kts 110°
2026-04-27 11:43 55.89380 75.71996 35151 ft 524 kts 111°
2026-04-27 11:44 55.86968 75.84215 35186 ft 522 kts 111°
2026-04-27 11:44 55.84583 75.96330 35185 ft 521 kts 111°
2026-04-27 11:45 55.82584 76.06445 35203 ft 521 kts 111°
2026-04-27 11:45 55.79777 76.20573 35211 ft 521 kts 111°
2026-04-27 11:46 55.77374 76.32584 35212 ft 521 kts 111°
2026-04-27 11:46 55.74936 76.44701 35202 ft 522 kts 111°
2026-04-27 11:47 55.72491 76.56773 35219 ft 522 kts 111°
2026-04-27 11:47 55.70035 76.68834 35173 ft 523 kts 112°
2026-04-27 11:48 55.67573 76.80883 35201 ft 523 kts 112°
2026-04-27 11:48 55.65105 76.92855 35208 ft 522 kts 112°
2026-04-27 11:49 55.62619 77.04845 35222 ft 522 kts 112°
2026-04-27 11:49 55.60104 77.16897 35227 ft 522 kts 112°
2026-04-27 11:50 55.57599 77.28827 35230 ft 522 kts 112°
2026-04-27 11:50 55.55063 77.40836 35236 ft 522 kts 112°
2026-04-27 11:51 55.52540 77.52717 35235 ft 522 kts 112°
2026-04-27 11:52 55.48695 77.70696 35187 ft 523 kts 113°
2026-04-27 11:52 55.46134 77.82611 35219 ft 522 kts 113°
2026-04-27 11:53 55.43568 77.94450 35231 ft 522 kts 113°
2026-04-27 11:53 55.40964 78.06391 35231 ft 522 kts 113°
2026-04-27 11:54 55.38370 78.18224 35244 ft 522 kts 113°
2026-04-27 11:54 55.35809 78.30059 35221 ft 523 kts 108°
2026-04-27 11:54 55.35102 78.36378 35210 ft 525 kts 97°
2026-04-27 11:55 55.34688 78.42692 35242 ft 524 kts 97°
2026-04-27 11:55 55.33711 78.55360 35234 ft 525 kts 98°
2026-04-27 11:56 55.32688 78.67964 35205 ft 526 kts 99°
2026-04-27 11:56 55.31646 78.80664 35215 ft 525 kts 99°
2026-04-27 11:57 55.30595 78.93261 35226 ft 525 kts 99°
2026-04-27 11:57 55.29528 79.05893 35228 ft 525 kts 99°
2026-04-27 11:57 55.28993 79.12159 35036 ft 522 kts 99°
2026-04-27 11:58 55.28461 79.18354 34671 ft 519 kts 99°
2026-04-27 11:58 55.27919 79.24618 34221 ft 519 kts 100°
2026-04-27 11:58 55.27380 79.30821 33886 ft 515 kts 100°
2026-04-27 11:58 55.26840 79.36994 33557 ft 513 kts 100°
2026-04-27 11:59 55.26304 79.43089 33206 ft 511 kts 100°
2026-04-27 11:59 55.25762 79.49210 32897 ft 507 kts 100°
2026-04-27 11:59 55.25221 79.55279 32607 ft 504 kts 100°
2026-04-27 11:59 55.24685 79.61272 32309 ft 501 kts 100°
2026-04-27 12:00 55.24139 79.67323 32011 ft 498 kts 101°
2026-04-27 12:00 55.23960 79.69301 31894 ft 498 kts 101°
2026-04-27 12:01 55.21476 79.96440 30414 ft 485 kts 102°
2026-04-27 12:02 55.19930 80.14312 30092 ft 454 kts 98°
2026-04-27 12:02 55.19751 80.19667 30318 ft 439 kts 92°
2026-04-27 12:02 55.19810 80.24982 30057 ft 438 kts 91°
2026-04-27 12:02 55.19896 80.30310 29313 ft 450 kts 89°
2026-04-27 12:03 55.20097 80.35845 28530 ft 460 kts 85°
2026-04-27 12:03 55.20536 80.41341 28221 ft 456 kts 79°
2026-04-27 12:03 55.20934 80.44383 28217 ft 449 kts 75°
2026-04-27 12:03 55.21942 80.49464 28187 ft 438 kts 64°
2026-04-27 12:04 55.23379 80.54132 27780 ft 437 kts 55°